| time (UTC) | temp C | wind direction | speed KPH | gust KPH | rain 1hr cm | rain 24hr cm | rain mn cm | humidity % | barometer mb |
| 20260506103038 | 10 | 132 | 8.0 | 16.1 | 0.00 | 0.00 | 0.00 | 85 | 1009.4 |
| 20260506101535 | 10 | 98 | 6.4 | 16.1 | 0.00 | 0.00 | 0.00 | 85 | 1009.2 |
| 20260506100036 | 10 | 101 | 4.8 | 17.7 | 0.00 | 0.00 | 0.00 | 85 | 1008.6 |
| 20260506094530 | 10 | 127 | 9.7 | 19.3 | 0.00 | 0.00 | 0.00 | 86 | 1008.2 |
| 20260506093027 | 10 | 119 | 8.0 | 14.5 | 0.00 | 0.00 | 0.00 | 86 | 1008.2 |
| 20260506091524 | 10 | 101 | 6.4 | 16.1 | 0.00 | 0.00 | 0.00 | 86 | 1008.2 |
| 20260506090024 | 10 | 124 | 6.4 | 14.5 | 0.00 | 0.00 | 0.00 | 86 | 1008.0 |
| 20260506084530 | 10 | 105 | 6.4 | 12.9 | 0.00 | 0.00 | 0.00 | 86 | 1007.9 |
| 20260506083024 | 10 | 111 | 4.8 | 14.5 | 0.00 | 0.00 | 0.00 | 86 | 1007.8 |
| 20260506081516 | 10 | 119 | 6.4 | 12.9 | 0.00 | 0.00 | 0.00 | 85 | 1008.0 |
| 20260506073009 | 11 | 100 | 8.0 | 19.3 | 0.00 | 0.00 | 0.00 | 84 | 1007.6 |
| 20260506071505 | 11 | 113 | 6.4 | 19.3 | 0.00 | 0.00 | 0.00 | 84 | 1007.7 |
| 20260506061554 | 12 | 106 | 6.4 | 16.1 | 0.00 | 0.00 | 0.00 | 81 | 1007.4 |
| 20260506044532 | 15 | 134 | 11.3 | 24.1 | 0.00 | 0.00 | 0.00 | 73 | 1006.8 |
| 20260506043029 | 16 | 129 | 11.3 | 22.5 | 0.00 | 0.00 | 0.00 | 71 | 1006.8 |
| 20260506041536 | 16 | 139 | 6.4 | 14.5 | 0.00 | 0.00 | 0.00 | 71 | 1006.5 |
| 20260506040021 | 17 | 120 | 12.9 | 20.9 | 0.00 | 0.00 | 0.00 | 69 | 1006.6 |
| 20260506034528 | 17 | 139 | 8.0 | 20.9 | 0.00 | 0.00 | 0.00 | 67 | 1006.4 |
| 20260506033016 | 17 | 139 | 12.9 | 27.4 | 0.00 | 0.00 | 0.00 | 66 | 1006.2 |
| 20260506031511 | 18 | 116 | 9.7 | 20.9 | 0.00 | 0.00 | 0.00 | 66 | 1005.6 |
| 20260506030010 | 18 | 141 | 9.7 | 17.7 | 0.00 | 0.00 | 0.00 | 66 | 1005.4 |
| 20260506024507 | 18 | 133 | 8.0 | 14.5 | 0.00 | 0.00 | 0.00 | 67 | 1005.2 |
| 20260506023005 | 18 | 130 | 3.2 | 11.3 | 0.00 | 0.00 | 0.00 | 68 | 1004.9 |
| 20260506021504 | 20 | 124 | 6.4 | 14.5 | 0.00 | 0.00 | 0.00 | 65 | 1004.6 |
| 20260506020002 | 20 | 138 | 4.8 | 14.5 | 0.00 | 0.00 | 0.00 | 64 | 1004.2 |
| 20260506014559 | 20 | 150 | 9.7 | 14.5 | 0.00 | 0.00 | 0.00 | 64 | 1004.1 |
| 20260506013104 | 21 | 130 | 6.4 | 16.1 | 0.00 | 0.00 | 0.00 | 63 | 1003.7 |
| 20260506011605 | 22 | 126 | 9.7 | 22.5 | 0.00 | 0.00 | 0.00 | 61 | 1003.5 |
| 20260506010056 | 22 | 115 | 6.4 | 12.9 | 0.00 | 0.00 | 0.00 | 60 | 1003.3 |
| 20260506004600 | 23 | 123 | 8.0 | 17.7 | 0.00 | 0.00 | 0.00 | 59 | 1003.1 |
| 20260506003056 | 23 | 126 | 11.3 | 30.6 | 0.00 | 0.00 | 0.00 | 57 | 1002.7 |
| 20260506001558 | 23 | 147 | 8.0 | 19.3 | 0.00 | 0.00 | 0.00 | 57 | 1002.6 |
| 20260505234554 | 26 | 136 | 9.7 | 20.9 | 0.00 | 0.00 | 0.00 | 56 | 1002.0 |
| 20260505233057 | 26 | 109 | 8.0 | 20.9 | 0.00 | 0.00 | 0.00 | 54 | 1001.4 |
| 20260505231554 | 29 | 86 | 8.0 | 17.7 | 0.00 | 0.00 | 0.00 | 45 | 1001.8 |
| 20260505230119 | 30 | 313 | 3.2 | 16.1 | 0.00 | 0.00 | 0.00 | 38 | 1001.3 |
| 20260505224553 | 31 | 306 | 6.4 | 12.9 | 0.00 | 0.00 | 0.00 | 37 | 1001.1 |
| 20260505223052 | 31 | 327 | 8.0 | 19.3 | 0.00 | 0.00 | 0.00 | 36 | 1001.1 |
| 20260505221557 | 31 | 321 | 6.4 | 16.1 | 0.00 | 0.00 | 0.00 | 38 | 1001.0 |
| 20260505220055 | 31 | 338 | 6.4 | 19.3 | 0.00 | 0.00 | 0.00 | 37 | 1001.1 |
| 20260505214548 | 31 | 360 | 6.4 | 14.5 | 0.00 | 0.00 | 0.00 | 37 | 1001.3 |
| 20260505213046 | 31 | 337 | 6.4 | 17.7 | 0.00 | 0.00 | 0.00 | 37 | 1001.5 |
| 20260505211557 | 31 | 355 | 3.2 | 9.7 | 0.00 | 0.00 | 0.00 | 40 | 1001.6 |
| 20260505210043 | 32 | 5 | 3.2 | 19.3 | 0.00 | 0.00 | 0.00 | 39 | 1001.6 |
| 20260505204540 | 31 | 346 | 3.2 | 14.5 | 0.00 | 0.00 | 0.00 | 40 | 1001.9 |
| 20260505203040 | 31 | 44 | 3.2 | 12.9 | 0.00 | 0.00 | 0.00 | 39 | 1002.2 |
| 20260505201538 | 31 | 331 | 4.8 | 16.1 | 0.00 | 0.00 | 0.00 | 40 | 1002.6 |
| 20260505200041 | 31 | 308 | 6.4 | 14.5 | 0.00 | 0.00 | 0.00 | 41 | 1002.6 |
| 20260505194541 | 31 | 313 | 4.8 | 16.1 | 0.00 | 0.00 | 0.00 | 45 | 1002.7 |
| 20260505193041 | 30 | 5 | 4.8 | 16.1 | 0.00 | 0.00 | 0.00 | 44 | 1002.9 |
| 20260505191540 | 30 | 360 | 4.8 | 16.1 | 0.00 | 0.00 | 0.00 | 45 | 1003.0 |
| 20260505190031 | 29 | 317 | 6.4 | 17.7 | 0.00 | 0.00 | 0.00 | 47 | 1003.0 |
| 20260505184530 | 29 | 11 | 9.7 | 19.3 | 0.00 | 0.00 | 0.00 | 47 | 1003.2 |
| 20260505183034 | 29 | 314 | 6.4 | 16.1 | 0.00 | 0.00 | 0.00 | 47 | 1003.4 |
| 20260505181526 | 28 | 305 | 6.4 | 22.5 | 0.00 | 0.00 | 0.00 | 53 | 1003.4 |
| 20260505180024 | 28 | 15 | 9.7 | 17.7 | 0.00 | 0.00 | 0.00 | 53 | 1003.4 |
| 20260505174525 | 28 | 325 | 8.0 | 16.1 | 0.00 | 0.00 | 0.00 | 52 | 1003.5 |
| 20260505173021 | 27 | 350 | 6.4 | 19.3 | 0.00 | 0.00 | 0.00 | 56 | 1003.6 |
| 20260505171519 | 27 | 317 | 6.4 | 19.3 | 0.00 | 0.00 | 0.00 | 58 | 1003.6 |
| 20260505170016 | 27 | 313 | 9.7 | 19.3 | 0.00 | 0.00 | 0.00 | 60 | 1003.6 |
| 20260505164512 | 26 | 324 | 8.0 | 19.3 | 0.00 | 0.00 | 0.00 | 65 | 1003.6 |
| 20260505163010 | 25 | 360 | 9.7 | 19.3 | 0.00 | 0.00 | 0.00 | 70 | 1003.8 |
| 20260505161527 | 25 | 309 | 6.4 | 16.1 | 0.00 | 0.00 | 0.00 | 71 | 1003.6 |
| 20260505153100 | 23 | 360 | 9.7 | 27.4 | 0.00 | 0.00 | 0.00 | 76 | 1003.2 |
| 20260505151555 | 23 | 294 | 8.0 | 19.3 | 0.00 | 0.00 | 0.00 | 78 | 1003.1 |
| 20260505150104 | 22 | 304 | 12.9 | 24.1 | 0.00 | 0.00 | 0.00 | 79 | 1003.0 |
| 20260505124549 | 18 | 278 | 11.3 | 22.5 | 0.00 | 0.00 | 0.00 | 86 | 1002.3 |
| 20260505123043 | 18 | 304 | 9.7 | 22.5 | 0.00 | 0.00 | 0.00 | 87 | 1002.2 |
| 20260505121544 | 18 | 286 | 11.3 | 22.5 | 0.00 | 0.00 | 0.00 | 87 | 1002.2 |
| 20260505120041 | 18 | 294 | 9.7 | 20.9 | 0.00 | 0.00 | 0.00 | 87 | 1001.9 |
| 20260505114538 | 18 | 297 | 14.5 | 22.5 | 0.00 | 0.00 | 0.00 | 86 | 1001.9 |
| 20260505113037 | 18 | 300 | 11.3 | 22.5 | 0.00 | 0.00 | 0.00 | 86 | 1001.8 |
| 20260505111535 | 18 | 309 | 11.3 | 19.3 | 0.00 | 0.00 | 0.00 | 86 | 1001.8 |